[[{"header":{"parameterUnit":"m.s-1","parameterCategory":1,"la1":30.2991,"la2":30.254,"lo1":-89.0895,"lo2":-89.0444,"dy":0.0017,"dx":0.0017,"nx":28,"ny":28,"refTime":"2024-07-04T21:00:00:Z","depth":0,"parameterNumber":2,"parameterNumberName":"U-component_of_WINDS"},"data":[0,0,0,0,0,0,0,0,0,0,0,0,0,0,0,0,0,0,0,0,0,0,0,0,0,0,0,0,0,0,0,0,0,0,0,0,0,0,0,0,0,0,0,0,0,0,0,0,0,0,0,0,0,0,0,0,0,0,1.9214,1.9215,0,1.9255,1.9255,1.9256,1.9242,1.9241,1.924,1.924,1.9282,1.9284,1.9286,0,0,0,0,0,0,0,0,0,0,0,0,0,1.9126,1.9127,1.9214,1.9215,1.9215,1.9255,1.9255,1.9256,1.9242,1.9241,1.924,1.9239,1.9281,1.9284,1.9286,0,0,0,0,0,0,0,0,0,0,0,0,0,1.9165,1.9128,1.9214,1.9213,1.9213,1.9255,1.9255,1.9256,1.9243,1.9241,1.924,1.9239,1.928,1.9283,1.9286,1.9331,0,0,1.9295,1.9296,0,0,0,0,0,0,0,0,1.9163,1.9168,1.9213,1.9213,1.9214,1.9242,1.924,1.9281,1.9243,1.9232,1.924,1.9238,1.927,1.9274,1.9284,1.9333,1.9335,1.9295,1.9297,1.9299,1.9299,0,0,0,0,0,0,0,1.916,1.9166,1.923,1.9213,1.9214,1.9211,1.9215,1.9248,1.9258,1.9232,1.9231,1.9237,1.927,1.9281,1.9285,1.9335,1.9295,1.9298,1.93,1.9301,1.9424,1.9426,0,0,0,0,0,0,1.9157,1.9164,1.9229,1.9231,1.9184,1.9214,1.9218,1.9234,1.9257,1.9259,1.9238,1.9236,1.9277,1.9282,1.9286,1.9341,1.9298,1.9301,1.9303,1.9423,1.9424,1.9426,0,0,0,0,0,0,1.9155,1.9163,1.9227,1.9198,1.9206,1.9217,1.9235,1.9236,1.9247,1.9261,1.9263,1.9247,1.9276,1.9282,1.932,1.9342,1.9303,1.9305,1.9421,1.9423,1.9425,1.9449,0,0,0,0,0,0,1.9153,1.9162,1.9179,1.9198,1.9207,1.926,1.9236,1.9238,1.9252,1.925,1.9271,1.9273,1.9276,1.9316,1.9323,1.9345,1.9308,1.9419,1.9422,1.9425,1.9446,1.9452,1.9457,0,0,0,0,0,1.9149,1.9184,1.918,1.9188,1.9228,1.9261,1.9267,1.9268,1.9254,1.9271,1.928,1.9272,1.9339,1.932,1.9328,1.9351,1.9418,1.9421,1.9424,1.9444,1.9451,1.9457,0,0,0,0,0,0,1.9167,1.9186,1.9182,1.9224,1.9241,1.9259,1.928,1.9275,1.9297,1.9294,1.9296,1.9301,1.934,1.935,1.9328,1.9396,1.9376,1.9381,1.9388,1.9395,1.94,1.9396,1.931,0,0,0,0,0,1.9176,1.92,1.9216,1.9252,1.9261,1.9269,1.9284,1.9284,1.9302,1.9309,1.9321,1.9339,1.9364,1.938,1.9404,1.9448,1.9453,1.9468,1.9473,1.9478,1.9482,1.9507,1.9514,1.9437,1.9437,1.9437,0,0,1.9194,1.9207,1.9223,1.9255,1.9269,1.9295,1.9275,1.9303,1.9323,1.9313,1.9349,1.9359,1.9379,1.9421,1.944,1.943,1.9504,1.9482,1.9485,1.9487,1.9511,1.9518,1.9524,1.944,1.9439,1.9439,0,0,1.924,1.9253,1.9284,1.9298,1.9318,1.9324,1.9332,1.9351,1.9357,1.9393,1.9387,1.9411,1.9453,1.9468,1.9481,1.9535,1.9528,1.9543,1.9569,1.9593,1.9599,1.9604,1.9623,1.963,1.9547,1.9547,1.9547,0,1.9259,1.9298,1.93,1.9329,1.9344,1.9337,1.9369,1.9382,1.941,1.942,1.9409,1.9463,1.9476,1.9521,1.9535,1.9546,1.9554,1.954,1.9598,1.9603,1.9608,1.9627,1.9634,1.9549,1.9548,1.9548,1.9548,0,1.9322,1.9349,1.9371,1.9398,1.9416,1.9446,1.9453,1.947,1.947,1.9477,1.9515,1.9531,1.9558,1.9569,1.9568,1.9614,1.9607,1.9597,1.9577,1.9617,1.9634,1.9641,1.9551,1.955,1.955,1.9549,0,0,1.9378,1.9407,1.9415,1.9427,1.945,1.9472,1.9502,1.9529,1.9544,1.9563,1.9589,1.9626,1.9617,1.9632,1.9633,1.9655,1.9696,1.9642,1.9642,1.9651,1.9748,1.9755,1.9763,1.9693,1.9694,1.9695,1.9746,0,1.9426,1.9479,1.9482,1.953,1.9556,1.955,1.9577,1.9594,1.9602,1.9625,1.9634,1.966,1.9647,1.9656,1.9677,1.9687,1.9716,1.9683,1.9716,1.9718,1.9711,1.9772,1.9779,1.9827,1.9753,1.9754,1.9755,0,1.9488,1.951,1.956,1.9581,1.9592,1.9615,1.964,1.9662,1.9682,1.9687,1.9704,1.9703,1.9735,1.9714,1.9758,1.9736,1.975,1.9757,1.9759,1.9762,1.9738,1.9776,1.9842,1.9849,1.9766,1.9765,1.9764,0,1.9524,1.9566,1.9602,1.9613,1.9637,1.9654,1.9666,1.9684,1.97,1.9722,1.9733,1.9759,1.9773,1.9793,1.9799,1.9783,1.9843,1.9822,1.9847,1.9847,1.9859,1.9858,1.9928,1.987,1.9869,1.9869,1.9869,0,1.9576,1.9607,1.9618,1.964,1.9675,1.968,1.9715,1.9725,1.9742,1.9766,1.9763,1.9786,1.9793,1.9817,1.9822,1.9858,1.9864,1.9869,1.987,1.9869,1.9868,1.9877,1.9874,1.9871,1.9871,1.987,1.987,0,1.9621,1.963,1.9669,1.9689,1.9695,1.972,1.9738,1.976,1.9768,1.9799,1.9806,1.9819,1.9848,1.9856,1.989,1.9893,1.9935,1.9934,1.9928,1.9928,1.9952,1.995,2.003,2.0041,1.9976,1.9976,1.9977,0,1.9653,1.9677,1.9701,1.9717,1.9729,1.9755,1.9771,1.9777,1.9795,1.982,1.9839,1.9867,1.989,1.9936,1.9948,1.9975,1.9973,2.0,1.9977,1.9975,1.9973,1.9971,1.9973,2.0003,2.0004,2.0005,2.0005,0,1.971,1.9713,1.9737,1.9763,1.9783,1.9804,1.9823,1.9837,1.9846,1.9866,1.9895,1.9913,1.9948,1.9976,2.0003,2.0015,2.0012,2.0012,2.0019,2.0018,2.0014,2.0016,1.9939,2.001,2.001,2.0009,2.0009,2.0009,1.9749,1.977,1.979,1.9817,1.9833,1.9852,1.9873,1.9885,1.9909,1.9938,1.9941,1.9972,1.9993,2.0029,2.0043,2.0068,2.006,2.007,2.0073,2.0075,2.0077,2.0011,2.0073,2.0073,2.0073,2.0072,2.0072,0,1.9804,1.9818,1.9843,1.9871,1.9892,1.9888,1.991,1.9928,1.9956,1.9976,1.9999,2.0033,2.006,2.0076,2.0103,2.0121,2.012,2.0128,2.0126,2.0129,2.0082,2.0073,2.0128,2.0128,2.0128,2.0128,2.0128,2.0128,1.9836,1.9872,1.9878,1.9922,1.9935,1.9966,1.9979,1.9997,2.0012,2.005,2.0073,2.0083,2.0101,2.0131,2.0156,2.016,2.017,2.0179,2.0182,2.0138,2.0132,2.0126,2.0118,2.0181,2.0181,2.0226,2.0226,2.0227]},{"header":{"parameterUnit":"m.s-1","parameterCategory":1,"la1":30.2991,"la2":30.254,"lo1":-89.0895,"lo2":-89.0444,"dy":0.0017,"dx":0.0017,"nx":28,"ny":28,"refTime":"2024-07-04T21:00:00:Z","depth":0,"parameterNumber":3,"parameterNumberName":"V-component_of_WINDS"},"data":[0,0,0,0,0,0,0,0,0,0,0,0,0,0,0,0,0,0,0,0,0,0,0,0,0,0,0,0,0,0,0,0,0,0,0,0,0,0,0,0,0,0,0,0,0,0,0,0,0,0,0,0,0,0,0,0,0,0,2.5002,2.5003,0,2.5093,2.5094,2.5095,2.5128,2.5128,2.5128,2.5128,2.5219,2.5221,2.5224,0,0,0,0,0,0,0,0,0,0,0,0,0,2.4854,2.4856,2.5002,2.5003,2.5004,2.5092,2.5094,2.5095,2.5128,2.5128,2.5128,2.5127,2.5218,2.5221,2.5224,0,0,0,0,0,0,0,0,0,0,0,0,0,2.4928,2.4857,2.5001,2.5031,2.5035,2.5092,2.5094,2.5095,2.5128,2.5128,2.5128,2.5127,2.5217,2.5221,2.5225,2.5258,0,0,2.5237,2.5239,0,0,0,0,0,0,0,0,2.4924,2.4934,2.5026,2.5029,2.5034,2.5099,2.5075,2.515,2.5129,2.5093,2.5128,2.5127,2.5179,2.5186,2.5204,2.5263,2.5267,2.5238,2.524,2.5242,2.5243,0,0,0,0,0,0,0,2.4919,2.493,2.5038,2.5027,2.5032,2.5039,2.5049,2.5089,2.5137,2.5096,2.5099,2.5109,2.5181,2.52,2.5207,2.5268,2.5237,2.5241,2.5244,2.5245,2.5355,2.5355,0,0,0,0,0,0,2.4909,2.4926,2.5035,2.504,2.4977,2.5042,2.5053,2.5078,2.5137,2.5146,2.5109,2.511,2.5193,2.5202,2.521,2.5251,2.5242,2.5245,2.5248,2.5354,2.5355,2.5356,0,0,0,0,0,0,2.4906,2.4919,2.5031,2.4984,2.4999,2.5045,2.5073,2.508,2.5099,2.5147,2.5155,2.512,2.5193,2.5204,2.5245,2.5255,2.5247,2.5251,2.5354,2.5355,2.5355,2.5335,0,0,0,0,0,0,2.4901,2.4917,2.4932,2.4984,2.5001,2.5066,2.5073,2.5082,2.5106,2.5109,2.516,2.5168,2.5194,2.5239,2.5249,2.526,2.5254,2.5353,2.5354,2.5355,2.5335,2.5335,2.5335,0,0,0,0,0,2.4896,2.4923,2.4932,2.4945,2.502,2.5067,2.5077,2.5107,2.5107,2.5121,2.5151,2.5166,2.5252,2.5243,2.5255,2.5267,2.5353,2.5354,2.5355,2.5335,2.5335,2.5335,0,0,0,0,0,0,2.4871,2.493,2.4941,2.4986,2.5021,2.5072,2.5091,2.5106,2.5142,2.5142,2.5178,2.5189,2.5227,2.5251,2.524,2.5301,2.5303,2.5307,2.5284,2.5284,2.5284,2.5278,2.5258,0,0,0,0,0,2.487,2.4904,2.4954,2.4988,2.5005,2.5045,2.5067,2.5087,2.5124,2.5139,2.5172,2.5208,2.5242,2.5265,2.53,2.5338,2.5349,2.5352,2.5352,2.5352,2.5355,2.5375,2.5376,2.5359,2.5359,2.5359,0,0,2.487,2.4906,2.4926,2.4984,2.5014,2.5046,2.5057,2.5092,2.5117,2.5144,2.5185,2.521,2.5252,2.5291,2.531,2.5313,2.5361,2.5353,2.5353,2.5356,2.5376,2.5377,2.5379,2.536,2.536,2.536,0,0,2.4886,2.4917,2.4948,2.4977,2.5022,2.5047,2.5054,2.5103,2.5121,2.5162,2.5183,2.5211,2.5271,2.5299,2.5321,2.5344,2.5358,2.5354,2.5354,2.5373,2.5374,2.5375,2.5382,2.5384,2.5356,2.5356,2.5356,0,2.4879,2.4931,2.4962,2.4996,2.5019,2.5045,2.5076,2.5102,2.5155,2.517,2.5172,2.5246,2.5276,2.5321,2.5326,2.5344,2.5352,2.5349,2.5372,2.5373,2.5375,2.5382,2.5384,2.5355,2.5356,2.5356,2.5356,0,2.492,2.4955,2.4974,2.5024,2.5051,2.5082,2.5117,2.5139,2.5156,2.5181,2.5221,2.5257,2.5299,2.5311,2.5328,2.5358,2.5357,2.5365,2.5368,2.5375,2.5382,2.5385,2.5354,2.5355,2.5355,2.5355,0,0,2.4924,2.4989,2.4996,2.5018,2.5067,2.5094,2.5126,2.5166,2.5184,2.5219,2.5245,2.5293,2.53,2.5325,2.5345,2.5361,2.5374,2.5366,2.5368,2.5366,2.5407,2.5401,2.5404,2.5384,2.5384,2.5385,2.5404,0,2.4946,2.5005,2.5032,2.5078,2.5109,2.5133,2.516,2.5192,2.5215,2.5244,2.527,2.5303,2.5309,2.5324,2.5342,2.5369,2.5383,2.5368,2.5407,2.5408,2.5397,2.5408,2.5403,2.5419,2.5407,2.5407,2.5407,0,2.498,2.5014,2.5062,2.5106,2.512,2.5144,2.5182,2.521,2.5246,2.5261,2.5287,2.5306,2.5338,2.5338,2.5381,2.537,2.5388,2.5403,2.5404,2.5409,2.5409,2.5413,2.5425,2.5427,2.5412,2.5412,2.5411,0,2.4976,2.5034,2.507,2.5089,2.514,2.5156,2.5178,2.5214,2.5236,2.5268,2.5282,2.5318,2.5337,2.5364,2.5391,2.5388,2.5431,2.5434,2.5444,2.5443,2.5452,2.5452,2.5467,2.5463,2.5463,2.5463,2.5463,0,2.4997,2.5026,2.5069,2.5092,2.5123,2.5154,2.5184,2.5208,2.5239,2.5264,2.5287,2.531,2.5345,2.5372,2.5393,2.5425,2.5434,2.5446,2.5452,2.5444,2.5443,2.5457,2.5456,2.5464,2.5464,2.5464,2.5464,0,2.4999,2.503,2.507,2.5115,2.5127,2.5148,2.5186,2.5208,2.5231,2.5263,2.5273,2.5309,2.5342,2.5372,2.5416,2.543,2.5462,2.5469,2.545,2.5453,2.5461,2.546,2.5486,2.5491,2.5484,2.5484,2.5484,0,2.501,2.5033,2.508,2.5099,2.512,2.5151,2.5173,2.5203,2.5224,2.5265,2.5281,2.5316,2.5345,2.5397,2.5426,2.5459,2.5467,2.5474,2.5472,2.5463,2.5466,2.5464,2.5466,2.5474,2.5473,2.5473,2.5473,0,2.5027,2.504,2.5071,2.5107,2.5132,2.5162,2.5192,2.5206,2.5241,2.5264,2.5298,2.532,2.5364,2.5398,2.5434,2.5455,2.547,2.5473,2.5477,2.547,2.5458,2.5464,2.5449,2.5473,2.5473,2.5473,2.5473,2.5473,2.5033,2.5054,2.5089,2.5122,2.5148,2.5175,2.5196,2.5222,2.5251,2.529,2.5305,2.5339,2.5372,2.5422,2.5442,2.5469,2.5471,2.5477,2.5479,2.548,2.5478,2.5454,2.5475,2.5475,2.5475,2.5475,2.5476,0,2.505,2.5074,2.5104,2.5145,2.517,2.5181,2.5214,2.5235,2.5265,2.5294,2.5322,2.536,2.5392,2.5423,2.5457,2.5471,2.5479,2.5479,2.5478,2.5483,2.5474,2.5467,2.5473,2.5473,2.5472,2.5472,2.5472,2.5472,2.5062,2.5096,2.5113,2.5159,2.5182,2.5216,2.5234,2.5258,2.5282,2.5323,2.535,2.537,2.54,2.5435,2.5464,2.5472,2.5483,2.5482,2.5492,2.5484,2.5483,2.5483,2.5477,2.5484,2.5484,2.5498,2.5498,2.5498]}]]